Other Surface Observations
Issued by NWS

Current Version | Previous Version | Text Only | Print | Product List | Glossary On
Versions: 1 2 3 4 5 6 7 8 9 10 11 12 13 14 15 16 17 18 19 20 21 22 23 24 25 26 27 28 29 30 31 32 33 34 35 36 37 38 39 40 41 42 43 44 45 46 47 48 49 50
000
SXUS52 KTAE 220518
OSOTAE
OSOTAE
North Florida/South Alabama/Southwest Georgia Weather Roundup
National Weather Service Tallahassee Florida
100 AM EDT MON SEP 22 2014

Note: "fair" indicates few or no clouds below 12,000 feet with no
significant weather and/or obstructions to visibility.

!FLZ017-115-028-034-025-220600
...North Florida...

CITY           SKY/WX    TMP DP  RH WIND       PRES   REMARKS
TALLAHASSEE    CLEAR     67  64  90 CALM      30.02F
APALACHICOLA   CLEAR     71  66  84 CALM      30.02S
PERRY          CLEAR     68  68 100 CALM      30.04R FOG
CROSS CITY       N/A     71  69  93 CALM      30.02F
HOMERVILLE     FAIR      68  64  88 CALM      30.02S
JACKSONVILLE   PTCLDY    67  64  90 CALM      30.02S
$$

!FLZ112-006-005-002-011-220600
...Florida Panhandle...

CITY           SKY/WX    TMP DP  RH WIND       PRES   REMARKS
MARIANNA       CLEAR     70  68  93 S5        30.01S
BONIFAY        FAIR      67  66  97 MISG      30.02S
PANAMA CITY NW FAIR      69  66  90 CALM      30.01S
TYNDALL AFB    CLEAR     70  69  99 CALM      30.01F
TYND DRONE APT FAIR      71  70  96 MISG      30.00F
DE FUNIAK SPR  FAIR      67  66  95 CALM      30.02S
EGLIN AFB      CLEAR     71  67  85 N2        30.00F
DESTIN         CLEAR     73  69  87 CALM      30.00F
HURLBURT       CLEAR     69  64  83 N2        29.99F
CRESTVIEW      CLEAR     66  65  96 CALM      30.02S
PENSACOLA      CLEAR     70  68  93 N3        30.00S
$$

!ALZ063-066-220600
...South Alabama...

CITY           SKY/WX    TMP DP  RH WIND       PRES   REMARKS
DOTHAN         CLEAR     72  64  76 SW7       30.04S
OZARK CAIRNS   CLEAR     69  64  84 W3        30.01S
FT RUCKER HELI CLEAR     68  65  90 CALM      30.00S
RUCKER HELI 3  FAIR      73  66  80 SW5       30.03S
RUCKER HELI 2  FAIR      70  64  81 CALM      30.01S
FLORALA APT    CLEAR     71  67  87 CALM      30.03S
ANDALUSIA      CLEAR     75  66  73 CALM      30.01S
TROY           CLEAR     69  66  90 CALM      30.01F
EUFALA         FAIR      70  64  81 CALM      29.99S
MOBILE         CLEAR     71  70  96 CALM      30.02S
$$

!GAZ120>161-220600
...Southwest and South Central Georgia...

CITY           SKY/WX    TMP DP  RH WIND       PRES   REMARKS
THOMASVILLE    FAIR      66  66 100 CALM      30.03F
BAINBRIDGE     CLEAR     70  68  94 CALM      30.01F
MOODY AFB      CLEAR     66  64  91 S2        30.01F
VALDOSTA       CLEAR     65  62  90 CALM      30.02F
MOULTRIE       CLEAR     68  63  83 SW3       30.03S
BLAKELY        CLEAR     68  66  94 CALM        N/A
ALBANY         CLEAR     67  63  87 CALM      30.02S
TIFTON         FAIR      73  57  57 CALM      30.01S
FITZGERALD     FAIR      73  57  58 CALM      30.02S
CORDELE        FAIR      71  63  75 CALM      30.01S
AMERICUS       FAIR      70  63  78 SW5       30.02S
$$

!GMZ750-755-770-775-220600
...Coastal and Buoy Obs...

STATION/POSITION TIME  TEMP    WIND        PRES    VSBY  WAVE
                       AIR SEA DIR/SP/G                  HT/PER
                 (UTC) (F)     (DEG/KT/KT) (MB)    (MI)  (FT/S)
KEATON BEACH     0500   72      60/  2/  3 1016.8F
CEDAR KEY        0500   77      40/  5/  6 1017.1F
C TOWER          0500   80     110/  3/  4 1016.2F
APALACHICOLA BUO 0500   81 84   70/  8/ 10 1016.2S         1/ 6
PANAMA CITY BUOY 0440   81 84   80/ 12/ 14 1015.5F         2/ 4
MOBILE BUOY      0419   82 84   90/ 12/ 14 1015.9S         3/ 6
ORANGE BCH AL BU 0500   82 85   80/  6/  6 1015.9F         2/ 5
$$



USA.gov is the U.S. government's official web portal to all federal, state and local government web resources and services.